Home   Weather   Olpe   Past weeks

Flag for Germany Past Weather in Olpe, North Rhine-Westphalia, Germany — Yesterday and Last 2 Weeks

Now
25 °F

Ice fog.


Feels Like: 18 °F
Forecast: 14 / 29 °F
Wind: 6 mph from East

Location: Hessen

Current Time: Jan 24, 2017 at 10:49:35 pm

Latest Report: Jan 24, 2017 at 8:50 pm


Visibility: 2 mi

Pressure: 30.33 "Hg

Humidity: 100%

Dew Point: 25 °F

Location of OlpeLocation

Past Weather in Olpe — Graph

°F

Olpe Temperature Yesterday

Maximum temperature yesterday: 21 °F (at 8:20 am)
Minimum temperature yesterday: 18 °F (at 10:50 am)
Average temperature yesterday: 20 °F

High & Low Weather Summary for the Past Weeks

 TemperatureHumidityPressure
High37 °F (Jan 11, 4:50 pm)100% (Jan 9, 8:20 pm)30.57 "Hg (Jan 9, 8:20 pm)
Low16 °F (Jan 18, 8:20 am)37% (Jan 20, 9:50 am)29.39 "Hg (Jan 12, 8:50 pm)
Average26 °F88%30.15 "Hg
* Reported Jan 9 8:20 pm — Jan 24 8:50 pm, Olpe, Weather by CustomWeather, © 2017

Note: Actual official high and low records may vary slightly from our data, if they occured in-between our weather recording intervals... More about our weather records

Advertising

Olpe Weather History for the Previous 24 Hours

Scroll right to see more
 ConditionsComfort  
Time TempWeatherWind HumidityBarometerVisibility
8:50 pm
Tue, Jan 24
25 °FIce fog.6 mph100%30.33 "Hg2 mi
8:20 pm25 °FLow clouds.5 mph100%30.33 "Hg4 mi
7:50 pm25 °FLow clouds.5 mph100%30.33 "Hg4 mi
7:20 pm25 °FLow clouds.5 mph100%30.33 "Hg4 mi
6:50 pm25 °FLow clouds.5 mph100%30.33 "Hg4 mi
6:20 pm25 °FLow clouds.5 mph100%30.30 "Hg4 mi
5:50 pm25 °FLow clouds.5 mph100%30.30 "Hg4 mi
5:20 pm25 °FLow clouds.3 mph100%30.30 "Hg4 mi
4:20 pm25 °FLow clouds.5 mph100%30.30 "Hg4 mi
3:50 pm25 °FLow clouds.5 mph100%30.27 "Hg4 mi
3:20 pm25 °FIce fog.5 mph100%30.27 "Hg3 mi
2:50 pm25 °FIce fog.3 mph100%30.27 "Hg2 mi
2:20 pm27 °FIce fog.3 mph100%30.27 "Hg2 mi
1:50 pm27 °FIce fog.3 mph100%30.27 "Hg2 mi
1:20 pm27 °FIce fog.3 mph100%30.27 "Hg2 mi
12:20 pm27 °FIce fog.2 mph100%30.27 "Hg2 mi
11:50 am27 °FIce fog.2 mph100%30.27 "Hg2 mi
11:20 am27 °FIce fog.1 mph100%30.27 "Hg1 mi
10:50 am27 °FIce fog.No wind100%30.27 "Hg1 mi
10:20 am25 °FIce fog.1 mph100%30.27 "Hg1 mi
9:50 am23 °FIce fog.2 mph100%30.27 "Hg1 mi
9:20 am23 °FIce fog.2 mph100%30.24 "Hg0 mi
8:50 am21 °FIce fog.3 mph100%30.24 "Hg0 mi
8:20 am23 °FIce fog.2 mph100%30.24 "Hg0 mi
7:50 am23 °FIce fog.2 mph100%30.21 "Hg1 mi
Weather by CustomWeather, © 2017

See weather overviewHow to use our weather pages